Location: Centerville
(32.8776°N, 96.6203°W)
Time: 00:32:57
(UTC+00:00)

Cosmos 1821 Rocket - Pass Details

Date: 17 June 2021
Orbit: 944 x 1005 km, 82.9° (Epoch: 01 August)

Event Time Altitude Azimuth Distance (km) Brightness Sun altitude
Rises 02:22:47 0° 351° (N) 3,662 7.7 -9.0°
Reaches altitude 10° 02:25:19 10° 349° (N) 2,703 7.1 -9.4°
Maximum altitude 02:31:27 71° 267° (W) 1,005 4.3 -10.5°
Drops below altitude 10° 02:37:29 10° 184° (S) 2,658 6.0 -11.5°
Sets 02:39:58 0° 182° (S) 3,596 6.6 -11.9°
